FW3197 Weather Reports


time (UTC)temp
C
wind
direction
speed
KPH
gust
KPH
rain 1hr
cm
rain 24hr
cm
rain mn
cm
humidity
%
barometer
mb
20260508021530 8 124 0.0 0.0 0.00 0.05 0.05 59 1007.2
20260508020029 9 124 0.0 0.0 0.00 0.05 0.05 57 1007.1
20260508014528 10 124 0.0 0.0 0.00 0.05 0.05 55 1006.8
20260508013028 10 103 0.0 0.0 0.00 0.05 0.05 53 1006.6
20260508011535 10 103 0.0 0.0 0.00 0.05 0.05 50 1006.5
20260508010030 11 276 0.0 1.6 0.00 0.05 0.05 49 1006.3
20260508004536 12 318 0.0 4.8 0.00 0.05 0.05 47 1006.0
20260508003026 12 298 0.0 3.2 0.00 0.05 0.05 46 1005.9
20260508001529 12 1 0.0 4.8 0.00 0.05 0.05 44 1005.7
20260508000025 13 311 1.6 8.0 0.00 0.05 0.05 42 1005.6
20260507234531 13 255 0.0 3.2 0.00 0.30 0.05 41 1005.5
20260507233028 14 299 1.6 16.1 0.00 0.30 0.05 40 1005.5
20260507231523 15 339 1.6 9.7 0.00 0.30 0.05 39 1005.3
20260507230022 15 309 0.0 9.7 0.00 0.30 0.05 38 1005.2
20260507224524 16 260 4.8 16.1 0.00 0.51 0.05 36 1005.1
20260507223021 16 356 1.6 11.3 0.00 0.51 0.05 36 1004.9
20260507221521 16 106 1.6 9.7 0.00 0.51 0.05 36 1004.8
20260507220019 16 295 4.8 19.3 0.00 0.51 0.05 36 1004.6
20260507214525 17 345 3.2 9.7 0.00 0.61 0.05 36 1004.5
20260507213018 17 274 0.0 9.7 0.00 0.61 0.05 37 1004.4
20260507211518 17 273 0.0 8.0 0.00 0.61 0.05 37 1004.4
20260507210017 17 37 0.0 22.5 0.00 0.61 0.05 37 1004.5
20260507204516 17 186 1.6 14.5 0.00 0.91 0.05 35 1004.4
20260507203017 17 281 3.2 14.5 0.00 0.91 0.05 36 1004.3
20260507201517 17 302 4.8 19.3 0.00 0.91 0.05 34 1004.4
20260507200014 17 108 3.2 14.5 0.00 0.91 0.05 38 1004.6
20260507194514 17 322 0.0 14.5 0.00 1.02 0.05 40 1004.4
20260507193019 17 281 3.2 16.1 0.00 1.02 0.05 37 1004.5
20260507191512 17 293 1.6 9.7 0.00 1.02 0.05 38 1004.6
20260507190015 17 302 3.2 9.7 0.00 1.02 0.05 38 1004.7
20260507184509 17 14 3.2 12.9 0.00 1.02 0.05 42 1004.8
20260507183009 17 280 4.8 12.9 0.00 1.02 0.05 40 1004.8
20260507181507 17 356 6.4 14.5 0.00 1.02 0.05 39 1005.0
20260507180006 17 268 3.2 16.1 0.00 1.02 0.05 39 1005.2
20260507174513 17 258 1.6 8.0 0.00 1.02 0.05 40 1005.0
20260507173002 17 32 0.0 12.9 0.00 1.02 0.05 46 1005.0
20260507171501 17 276 4.8 19.3 0.00 1.02 0.05 44 1005.3
20260507164556 16 129 4.8 12.9 0.00 1.02 0.05 51 1005.5
20260507163054 17 326 1.6 9.7 0.00 1.02 0.05 59 1005.6
20260507161557 15 282 0.0 11.3 0.00 1.02 0.05 60 1006.0
20260507160113 16 22 3.2 8.0 0.00 1.02 0.05 56 1006.0
20260507154550 16 296 1.6 9.7 0.00 1.02 0.05 59 1006.2
20260507153049 15 222 1.6 9.7 0.00 1.02 0.05 58 1006.2
20260507151555 15 94 0.0 6.4 0.00 1.02 0.05 58 1006.4
20260507150046 16 324 1.6 11.3 0.00 1.02 0.05 54 1006.6
20260507144545 16 288 1.6 6.4 0.00 1.02 0.05 55 1006.8
20260507143041 15 49 1.6 6.4 0.00 1.02 0.05 58 1006.7
20260507141538 15 85 1.6 8.0 0.00 1.02 0.05 59 1006.6
20260507140045 14 10 1.6 9.7 0.00 1.02 0.05 59 1006.7
20260507134534 13 257 1.6 8.0 0.00 1.02 0.05 62 1006.6
20260507133034 13 314 1.6 9.7 0.00 1.02 0.05 65 1007.0
20260507131600 12 293 0.0 9.7 0.00 1.02 0.05 71 1007.1
20260507130030 12 323 0.0 11.3 0.00 1.02 0.05 71 1007.2
20260507124531 11 271 1.6 12.9 0.00 1.02 0.05 70 1007.3
20260507123035 11 293 0.0 4.8 0.00 1.02 0.05 74 1007.2
20260507121525 11 356 1.6 4.8 0.00 1.02 0.05 77 1007.5
20260507120030 10 338 1.6 6.4 0.00 1.02 0.05 82 1007.4
20260507114523 9 175 0.0 4.8 0.00 1.02 0.05 84 1007.4
20260507113054 8 262 0.0 3.2 0.00 1.02 0.05 84 1007.0
20260507111523 8 314 1.6 8.0 0.00 1.02 0.05 85 1007.1
20260507110018 8 270 0.0 3.2 0.00 1.02 0.05 86 1007.1
20260507104519 8 278 0.0 4.8 0.00 1.02 0.05 87 1006.8
20260507103014 8 281 0.0 8.0 0.00 1.02 0.05 87 1006.6
20260507101521 8 307 0.0 4.8 0.00 1.02 0.05 87 1006.6
20260507100027 8 335 0.0 8.0 0.00 1.02 0.05 88 1006.6
20260507094510 8 260 0.0 4.8 0.00 1.02 0.05 89 1006.3
20260507093013 8 334 0.0 6.4 0.03 1.02 0.05 89 1006.6
20260507091509 8 354 0.0 3.2 0.03 1.02 0.05 89 1006.8
20260507090007 8 266 0.0 8.0 0.03 1.02 0.05 88 1006.3
20260507084503 8 274 0.0 4.8 0.03 1.02 0.05 89 1006.3
20260507083007 9 281 0.0 6.4 0.00 0.99 0.03 89 1006.1
20260507081501 9 278 0.0 4.8 0.00 0.99 0.03 88 1006.1
20260507080058 10 284 0.0 8.0 0.00 0.99 0.03 86 1006.3
20260507074556 10 267 1.6 9.7 0.00 0.99 0.03 86 1006.4
20260507073058 10 213 1.6 16.1 0.00 0.99 0.03 86 1006.1
20260507071552 10 287 0.0 12.9 0.00 0.99 0.03 87 1006.0
20260507070104 10 241 1.6 6.4 0.00 0.99 0.03 88 1005.6
20260507064553 10 268 0.0 9.7 0.00 0.99 0.03 89 1005.7
20260507063053 10 316 0.0 8.0 0.00 0.99 0.03 89 1005.5
20260507061546 11 226 1.6 6.4 0.00 0.99 0.03 90 1005.6
20260507060048 11 325 1.6 6.4 0.00 0.99 0.03 90 1005.8
20260507054544 11 307 1.6 9.7 0.00 0.99 0.03 91 1005.9
20260507053040 11 93 0.0 6.4 0.00 0.99 0.03 91 1006.0
20260507051539 11 280 0.0 3.2 0.03 0.99 0.03 91 1006.1
20260507050059 11 285 0.0 6.4 0.03 0.99 0.03 91 1005.9
20260507044546 12 75 0.0 6.4 0.03 0.99 0.03 91 1005.6
20260507043032 12 287 0.0 8.0 0.03 0.99 0.03 91 1005.8
20260507041529 12 316 1.6 8.0 0.00 0.97 0.00 91 1005.8
20260507040024 13 94 1.6 12.9 0.00 0.97 0.00 92 1005.5
20260507034519 14 319 0.0 6.4 0.00 0.97 0.97 94 1005.2
20260507033026 15 231 1.6 6.4 0.00 0.97 0.97 94 1004.8
20260507031515 15 155 1.6 8.0 0.00 0.97 0.97 94 1004.4
20260507030015 15 134 0.0 6.4 0.00 0.97 0.97 94 1004.4
20260507024517 15 195 1.6 11.3 0.00 0.97 0.97 94 1004.5
20260507023013 15 279 0.0 4.8 0.00 0.97 0.97 94 1004.3